Погода в Шудаяге

Россия / Республика Коми     63°31′42″N   53°36′15″E
темп.,
°C
ветер,
м/с
пор.,
м/с
влажн.,
%
обл.,
%
осадки,
мм/ч
давл.,
гПа
погр.,
м
24 июля, сб
сб2400:00+11ююв2597100 0.7 997266
03:00+9сз2798100 5.7 998395
06:00+9сз3897100 6.7 998566
09:00+10сз478397 7.2 1000791
12:00+14зсз453889 0.0 10012211
15:00+15з463597 0.0 10032226
18:00+13з364686 0.1 10051528
21:00+7з39775 0.2 1007303
25 июля, вс
вс2500:00+7з3882100 0.0 1008883
03:00+7з5992100 0.5 10081004
06:00+8з4988100 0.2 10101003
09:00+10з5877100 0.3 1011980
12:00+12з5862100 0.1 10111257
15:00+14з574889 0.1 10121745
18:00+12з597291 0.0 1013976
21:00+11зюз4982100 0.1 1013612
26 июля, пн
пн2600:00+10зюз3893100 0.1 1013459
03:00+8з2698100 0.3 1014228
06:00+9з3885100 0.1 1014603
09:00+11зсз475399 0.1 10141250
12:00+14зсз484293 0.0 10132063
15:00+15з5746100 0.0 10131899
18:00+9зсз399493 0.9 1013423
21:00+7з269995 1.1 1013156
27 июля, вт
вт2700:00+6зсз299747 0.1 1014205
03:00+4зсз399731 0.1 1014237
06:00+7зсз4992100 0.0 1014416
09:00+9зсз4785100 0.0 1014620
12:00+10зсз4978100 0.1 10131439
15:00+11сз486799 0.3 10131183
18:00+12зсз4106278 0.0 10131415
21:00+8зюз228376 0.0 101137
28 июля, ср
ср2800:00+7з3108150 0.0 1010221
03:00+7зюз31085100 0.0 1009244
06:00+11з31174100 0.3 1006605
09:00+10зюз51297100 3.1 1003786
12:00+10зюз51395100 3.3 10001036
15:00+11зсз499596 3.5 999668
18:00+11ссз38917 0.4 1000758
21:00+7ссз1197100 0.4 100142